Regional Weather Roundup
Issued by NWS

Home | Current Version | Previous Version | Text Only | Print | Product List | Glossary Off
Versions: 1 2 3 4 5 6 7 8 9 10 11 12 13 14 15 16 17 18 19 20 21 22 23 24 25 26 27 28 29 30 31 32 33 34 35 36 37 38 39 40 41 42 43 44 45 46 47 48 49 50

000
ASUS43 KBIS 260901
RWRND

NORTH DAKOTA REGIONAL WEATHER ROUNDUP
NATIONAL WEATHER SERVICE BISMARCK ND
300 AM CST MON JAN 26 2015

NOTE: "FAIR" INDICATES FEW OR NO CLOUDS BELOW 12,000 FEET WITH NO
SIGNIFICANT WEATHER AND/OR OBSTRUCTIONS TO VISIBILITY.


NDZ001>003-009>011-017-261000-
NORTHWEST NORTH DAKOTA

CITY           SKY/WX    TMP DP  RH WIND       PRES   REMARKS
WILLISTON      MOCLDY    37  32  82 SW5       29.88R
MINOT          MOCLDY    38  31  76 W13       29.77R
MINOT AFB      MOCLDY    38  36  93 NW18      29.76R
$$

NDZ018>021-031>035-040>046-261000-
SOUTHWEST NORTH DAKOTA

CITY           SKY/WX    TMP DP  RH WIND       PRES   REMARKS
BISMARCK       CLEAR     41  31  67 NW9       29.82R
DICKINSON      MOCLDY    39  33  79 W13       29.86R
GARRISON         N/A     39  33  79 NW20      29.80R
HETTINGER ARPT CLEAR     36  31  82 NW9       29.90R
$$

NDZ004>008-012>016-024-026-027-054-261000-
NORTHEAST NORTH DAKOTA

CITY           SKY/WX    TMP DP  RH WIND       PRES   REMARKS
GRAND FORKS    CLEAR     30  27  88 W8        29.61S
GRND FRKS AFB  CLEAR     38  31  76 NW15      29.62R
DEVILS LAKE    CLEAR     36  30  80 W17       29.67R
$$

NDZ022-023-025-028>030-036>039-047>053-261000-
SOUTHEAST NORTH DAKOTA

CITY           SKY/WX    TMP DP  RH WIND       PRES   REMARKS
FARGO          MOCLDY    31  27  85 SW12      29.66F
JAMESTOWN      MOCLDY    38  32  79 NW20      29.70R
$$




USA.gov is the U.S. government's official web portal to all federal, state and local government web resources and services.